Location: Ajisawe
(8.4333°N, 4.3833°E)
Time: 00:08:41
(UTC+00:00)

S-56A Canister/Altair - Pass Details

Date: 28 April 2021
Orbit: 631 x 2501 km, 38.9° (Epoch: 15 May)

Event Time Altitude Azimuth Distance (km) Brightness Sun altitude
Rises 18:49:44 0° 251° (WSW) 6,173 13.1 -14.5°
Reaches altitude 10° 18:54:21 10° 258° (WSW) 5,106 12.7 -15.6°
Maximum altitude 19:07:20 39° 321° (NW) 2,902 10.9 -18.7°
Drops below altitude 10° 19:17:22 10° 27° (NNE) 3,939 11.1 -21.0°
Sets 19:20:28 0° 36° (NE) 4,672 11.4 -21.7°
